| time (UTC) | temp C | wind direction | speed KPH | gust KPH | rain 1hr cm | rain 24hr cm | rain mn cm | humidity % | barometer mb |
| 20260901134510 | 25 | 257 | 1.6 | 8.0 | 0.00 | 0.00 | 0.00 | 80 | 1016.5 |
| 20260901133007 | 23 | 253 | 0.0 | 0.0 | 0.00 | 0.00 | 0.00 | 85 | 1016.5 |
| 20260901131507 | 22 | 227 | 0.0 | 0.0 | 0.00 | 0.00 | 0.00 | 92 | 1016.5 |
| 20260901130045 | 21 | 227 | 0.0 | 0.0 | 0.00 | 0.00 | 0.00 | 94 | 1016.5 |
| 20260901124552 | 21 | 227 | 0.0 | 0.0 | 0.00 | 0.00 | 0.00 | 95 | 1016.3 |
| 20260901123025 | 20 | 227 | 0.0 | 0.0 | 0.00 | 0.00 | 0.00 | 94 | 1016.2 |
| 20260901121523 | 20 | 227 | 0.0 | 0.0 | 0.00 | 0.00 | 0.00 | 94 | 1015.9 |
| 20260901120005 | 20 | 227 | 0.0 | 0.0 | 0.00 | 0.00 | 0.00 | 94 | 1015.8 |
| 20260901114504 | 20 | 227 | 0.0 | 0.0 | 0.00 | 0.00 | 0.00 | 94 | 1015.8 |
| 20260901113045 | 20 | 227 | 0.0 | 0.0 | 0.00 | 0.00 | 0.00 | 94 | 1015.6 |
| 20260901111548 | 20 | 227 | 0.0 | 0.0 | 0.00 | 0.00 | 0.00 | 94 | 1015.6 |
| 20260901110036 | 20 | 227 | 0.0 | 0.0 | 0.00 | 0.00 | 0.00 | 94 | 1015.5 |
| 20260901104524 | 20 | 227 | 0.0 | 0.0 | 0.00 | 0.00 | 0.00 | 94 | 1015.4 |
| 20260901103004 | 20 | 227 | 0.0 | 0.0 | 0.00 | 0.00 | 0.00 | 93 | 1015.3 |
| 20260901101503 | 20 | 227 | 0.0 | 0.0 | 0.00 | 0.00 | 0.00 | 93 | 1015.3 |
| 20260901100105 | 20 | 227 | 0.0 | 0.0 | 0.00 | 0.00 | 0.00 | 93 | 1015.2 |
| 20260901094542 | 20 | 227 | 0.0 | 0.0 | 0.00 | 0.00 | 0.00 | 93 | 1015.1 |
| 20260901093104 | 20 | 227 | 0.0 | 0.0 | 0.00 | 0.00 | 0.00 | 93 | 1015.0 |
| 20260901091529 | 20 | 227 | 0.0 | 0.0 | 0.00 | 0.00 | 0.00 | 93 | 1014.9 |
| 20260901090019 | 21 | 227 | 0.0 | 0.0 | 0.00 | 0.00 | 0.00 | 93 | 1014.9 |
| 20260901084558 | 21 | 227 | 0.0 | 0.0 | 0.00 | 0.00 | 0.00 | 93 | 1014.7 |
| 20260901083057 | 21 | 227 | 0.0 | 0.0 | 0.00 | 0.00 | 0.00 | 93 | 1014.5 |
| 20260901081538 | 21 | 226 | 0.0 | 0.0 | 0.00 | 0.00 | 0.00 | 92 | 1014.4 |
| 20260901080137 | 21 | 226 | 0.0 | 0.0 | 0.00 | 0.00 | 0.00 | 92 | 1014.3 |
| 20260901074518 | 21 | 226 | 0.0 | 0.0 | 0.00 | 0.00 | 0.00 | 92 | 1014.4 |
| 20260901073023 | 21 | 226 | 0.0 | 0.0 | 0.00 | 0.00 | 0.00 | 91 | 1014.4 |
| 20260901071604 | 22 | 226 | 0.0 | 0.0 | 0.00 | 0.00 | 0.00 | 90 | 1014.3 |
| 20260901064543 | 22 | 226 | 0.0 | 0.0 | 0.00 | 0.00 | 0.00 | 89 | 1014.4 |
| 20260901063042 | 22 | 226 | 0.0 | 0.0 | 0.00 | 0.00 | 0.00 | 91 | 1014.4 |
| 20260901061541 | 22 | 226 | 0.0 | 0.0 | 0.00 | 0.00 | 0.00 | 90 | 1014.4 |
| 20260901060043 | 22 | 226 | 0.0 | 0.0 | 0.00 | 0.00 | 0.00 | 91 | 1014.4 |
| 20260901054539 | 22 | 226 | 0.0 | 0.0 | 0.00 | 0.00 | 0.00 | 90 | 1014.4 |
| 20260901053038 | 22 | 226 | 0.0 | 0.0 | 0.00 | 0.00 | 0.00 | 90 | 1014.3 |
| 20260901051537 | 23 | 226 | 0.0 | 0.0 | 0.00 | 0.00 | 0.00 | 88 | 1014.3 |
| 20260901050030 | 23 | 226 | 0.0 | 0.0 | 0.00 | 0.00 | 0.00 | 88 | 1014.3 |
| 20260901044512 | 23 | 226 | 0.0 | 0.0 | 0.00 | 0.00 | 0.00 | 87 | 1014.3 |
| 20260901043011 | 23 | 226 | 0.0 | 0.0 | 0.00 | 0.00 | 0.00 | 86 | 1014.4 |
| 20260901041605 | 24 | 226 | 0.0 | 0.0 | 0.00 | 0.00 | 0.00 | 84 | 1014.3 |
| 20260901034542 | 24 | 226 | 0.0 | 0.0 | 0.00 | 0.00 | 0.00 | 86 | 1014.3 |
| 20260901033050 | 24 | 226 | 0.0 | 0.0 | 0.00 | 0.00 | 0.00 | 85 | 1014.3 |
| 20260901031516 | 25 | 226 | 0.0 | 0.0 | 0.00 | 0.00 | 0.00 | 86 | 1014.2 |
| 20260901030016 | 25 | 226 | 0.0 | 0.0 | 0.00 | 0.00 | 0.00 | 84 | 1014.3 |
| 20260901024606 | 25 | 226 | 0.0 | 0.0 | 0.00 | 0.00 | 0.00 | 85 | 1014.2 |
| 20260901023058 | 25 | 226 | 0.0 | 0.0 | 0.00 | 0.00 | 0.00 | 84 | 1014.2 |
| 20260901021540 | 26 | 226 | 0.0 | 0.0 | 0.00 | 0.00 | 0.00 | 83 | 1014.0 |
| 20260901020039 | 26 | 226 | 0.0 | 0.0 | 0.00 | 0.00 | 0.00 | 78 | 1014.0 |
| 20260901014521 | 27 | 226 | 0.0 | 0.0 | 0.00 | 0.00 | 0.00 | 74 | 1013.7 |
| 20260901013022 | 28 | 226 | 0.0 | 0.0 | 0.00 | 0.00 | 0.00 | 72 | 1013.5 |
| 20260901011503 | 28 | 226 | 0.0 | 0.0 | 0.00 | 0.00 | 0.00 | 71 | 1013.5 |
| 20260901010003 | 29 | 226 | 0.0 | 0.0 | 0.00 | 0.00 | 0.00 | 67 | 1013.3 |
| 20260901004553 | 30 | 226 | 0.0 | 0.0 | 0.00 | 0.00 | 0.00 | 66 | 1013.3 |
| 20260901003058 | 30 | 226 | 0.0 | 1.6 | 0.00 | 0.00 | 0.00 | 64 | 1013.2 |
| 20260901001555 | 31 | 226 | 0.0 | 1.6 | 0.00 | 0.00 | 0.00 | 62 | 1013.2 |
| 20260901000051 | 31 | 225 | 0.0 | 3.2 | 0.00 | 0.00 | 0.00 | 60 | 1013.2 |
| 20260831234554 | 32 | 225 | 0.0 | 6.4 | 0.00 | 0.00 | 0.00 | 58 | 1013.1 |
| 20260831233050 | 32 | 239 | 0.0 | 3.2 | 0.00 | 0.00 | 0.00 | 56 | 1013.2 |
| 20260831231549 | 33 | 230 | 0.0 | 3.2 | 0.00 | 0.00 | 0.00 | 53 | 1013.2 |
| 20260831230049 | 33 | 229 | 0.0 | 3.2 | 0.00 | 0.00 | 0.00 | 50 | 1013.2 |
| 20260831224532 | 35 | 233 | 0.0 | 6.4 | 0.00 | 0.00 | 0.00 | 49 | 1013.1 |
| 20260831223034 | 36 | 233 | 0.0 | 6.4 | 0.00 | 0.00 | 0.00 | 45 | 1013.0 |
| 20260831221522 | 36 | 233 | 0.0 | 6.4 | 0.00 | 0.00 | 0.00 | 44 | 1013.0 |
| 20260831220020 | 36 | 227 | 1.6 | 8.0 | 0.00 | 0.00 | 0.00 | 44 | 1013.2 |
| 20260831214555 | 36 | 235 | 1.6 | 6.4 | 0.00 | 0.00 | 0.00 | 44 | 1013.1 |
| 20260831213052 | 36 | 235 | 1.6 | 8.0 | 0.00 | 0.00 | 0.00 | 45 | 1013.2 |
| 20260831211534 | 35 | 247 | 3.2 | 11.3 | 0.00 | 0.00 | 0.00 | 46 | 1013.3 |
| 20260831210037 | 35 | 240 | 4.8 | 14.5 | 0.00 | 0.00 | 0.00 | 43 | 1013.3 |
| 20260831204516 | 35 | 243 | 9.7 | 16.1 | 0.00 | 0.00 | 0.00 | 43 | 1013.4 |
| 20260831203013 | 35 | 239 | 8.0 | 14.5 | 0.00 | 0.00 | 0.00 | 44 | 1013.4 |
| 20260831201554 | 35 | 224 | 3.2 | 12.9 | 0.00 | 0.00 | 0.00 | 46 | 1013.6 |
| 20260831200055 | 36 | 235 | 0.0 | 11.3 | 0.00 | 0.00 | 0.00 | 48 | 1013.9 |
| 20260831194536 | 35 | 218 | 3.2 | 12.9 | 0.00 | 0.00 | 0.00 | 45 | 1014.0 |
| 20260831193034 | 35 | 226 | 4.8 | 11.3 | 0.00 | 0.00 | 0.00 | 47 | 1014.1 |
| 20260831191512 | 35 | 231 | 4.8 | 12.9 | 0.00 | 0.00 | 0.00 | 47 | 1014.2 |
| 20260831190010 | 35 | 254 | 4.8 | 16.1 | 0.00 | 0.00 | 0.00 | 45 | 1014.3 |
| 20260831184551 | 35 | 243 | 6.4 | 14.5 | 0.00 | 0.00 | 0.00 | 46 | 1014.4 |
| 20260831183048 | 34 | 217 | 1.6 | 12.9 | 0.00 | 0.00 | 0.00 | 51 | 1014.6 |
| 20260831181533 | 33 | 227 | 4.8 | 14.5 | 0.00 | 0.00 | 0.00 | 48 | 1014.9 |
| 20260831180033 | 33 | 256 | 8.0 | 19.3 | 0.00 | 0.00 | 0.00 | 50 | 1015.1 |
| 20260831174510 | 33 | 268 | 8.0 | 12.9 | 0.00 | 0.00 | 0.00 | 51 | 1015.3 |
| 20260831173005 | 32 | 254 | 8.0 | 14.5 | 0.00 | 0.00 | 0.00 | 51 | 1015.5 |
| 20260831171547 | 32 | 260 | 3.2 | 16.1 | 0.00 | 0.00 | 0.00 | 53 | 1015.4 |
| 20260831170044 | 32 | 242 | 6.4 | 20.9 | 0.00 | 0.00 | 0.00 | 53 | 1015.6 |
| 20260831164523 | 31 | 258 | 6.4 | 14.5 | 0.00 | 0.00 | 0.00 | 54 | 1015.9 |
| 20260831163022 | 31 | 229 | 3.2 | 11.3 | 0.00 | 0.00 | 0.00 | 58 | 1016.0 |
| 20260831161500 | 30 | 256 | 9.7 | 16.1 | 0.00 | 0.00 | 0.00 | 57 | 1016.0 |
| 20260831160126 | 30 | 235 | 6.4 | 16.1 | 0.00 | 0.00 | 0.00 | 57 | 1016.0 |
| 20260831154537 | 29 | 240 | 4.8 | 12.9 | 0.00 | 0.00 | 0.00 | 61 | 1016.0 |
| 20260831153116 | 28 | 248 | 9.7 | 16.1 | 0.00 | 0.00 | 0.00 | 59 | 1016.0 |
| 20260831151515 | 28 | 264 | 4.8 | 14.5 | 0.00 | 0.00 | 0.00 | 62 | 1015.9 |
| 20260831150012 | 27 | 266 | 8.0 | 17.7 | 0.00 | 0.00 | 0.00 | 62 | 1016.0 |
| 20260831144554 | 27 | 249 | 6.4 | 14.5 | 0.00 | 0.00 | 0.00 | 64 | 1015.9 |
| 20260831143053 | 26 | 260 | 0.0 | 9.7 | 0.00 | 0.00 | 0.00 | 67 | 1015.8 |
| 20260831141530 | 26 | 247 | 0.0 | 0.0 | 0.00 | 0.00 | 0.00 | 68 | 1015.8 |
| 20260831140027 | 25 | 235 | 0.0 | 0.0 | 0.00 | 0.00 | 0.00 | 71 | 1015.8 |